EN

Hourly Weather Al Mahwit

Today, 16 January, Saturday

Time Temperature Precipitation Wind Pressure Humidity
00:00 +18°C° 0 mm 0 mps 656 mmHg 65%
01:00 +18°C° 0 mm 0 mps 656 mmHg 66%
02:00 +17°C° 0 mm 0 mps 656 mmHg 66%
03:00 +17°C° 0 mm 0 mps 656 mmHg 67%
04:00 +17°C° 0 mm 0 mps 656 mmHg 68%
05:00 +16°C° 0 mm 0 mps 656 mmHg 68%
06:00 +16°C° 0 mm 0 mps 656 mmHg 68%
07:00 +17°C° 0 mm 0 mps 657 mmHg 63%
08:00 +18°C° 0 mm 0 mps 657 mmHg 58%
09:00 +22°C° 0 mm 1 mps 658 mmHg 52%
10:00 +23°C° 0 mm 1 mps 658 mmHg 50%
11:00 +24°C° 0 mm 2 mps 658 mmHg 47%
12:00 +24°C° 0 mm 3 mps 657 mmHg 45%
13:00 +25°C° 0 mm 3 mps 657 mmHg 45%
14:00 +25°C° 0 mm 3 mps 656 mmHg 46%
15:00 +25°C° 0 mm 3 mps 656 mmHg 47%
16:00 +24°C° 0 mm 2 mps 656 mmHg 50%
17:00 +24°C° 0 mm 2 mps 656 mmHg 53%
18:00 +23°C° 0 mm 2 mps 656 mmHg 56%
19:00 +23°C° 0 mm 2 mps 656 mmHg 60%
20:00 +22°C° 0 mm 1 mps 657 mmHg 63%
21:00 +21°C° 0 mm 1 mps 657 mmHg 67%
22:00 +21°C° 0 mm 1 mps 657 mmHg 69%
23:00 +19°C° 0 mm 0 mps 657 mmHg 70%

Tomorrow, 17 January, Sunday

Time Temperature Precipitation Wind Pressure Humidity
00:00 +19°C° 0 mm 0 mps 656 mmHg 72%
01:00 +18°C° 0 mm 0 mps 656 mmHg 73%
02:00 +18°C° 0 mm 0 mps 656 mmHg 75%
03:00 +17°C° 0 mm 0 mps 656 mmHg 77%
04:00 +17°C° 0 mm 0 mps 656 mmHg 78%
05:00 +17°C° 0 mm 0 mps 656 mmHg 80%
06:00 +16°C° 0 mm 0 mps 656 mmHg 81%
07:00 +17°C° 0 mm 0 mps 656 mmHg 75%
08:00 +20°C° 0 mm 1 mps 657 mmHg 69%
09:00 +21°C° 0 mm 1 mps 658 mmHg 63%
10:00 +21°C° 0 mm 2 mps 657 mmHg 58%
11:00 +23°C° 0 mm 2 mps 657 mmHg 52%
12:00 +25°C° 0 mm 3 mps 657 mmHg 47%
13:00 +25°C° 0 mm 3 mps 657 mmHg 46%
14:00 +25°C° 0 mm 3 mps 656 mmHg 45%
15:00 +26°C° 0 mm 4 mps 656 mmHg 45%
16:00 +24°C° 0 mm 3 mps 656 mmHg 51%
17:00 +22°C° 0 mm 3 mps 656 mmHg 57%
18:00 +21°C° 0 mm 2 mps 657 mmHg 64%
19:00 +21°C° 0 mm 2 mps 657 mmHg 66%
20:00 +22°C° 0 mm 1 mps 657 mmHg 69%
21:00 +21°C° 0 mm 1 mps 657 mmHg 72%
22:00 +21°C° 0 mm 1 mps 657 mmHg 72%
23:00 +21°C° 0 mm 1 mps 657 mmHg 73%

Day after tomorrow, 18 January, Monday

Time Temperature Precipitation Wind Pressure Humidity
00:00 +21°C° 0 mm 1 mps 657 mmHg 74%
01:00 +20°C° 0 mm 1 mps 657 mmHg 77%
02:00 +20°C° 0 mm 1 mps 656 mmHg 79%
03:00 +19°C° 0 mm 1 mps 656 mmHg 81%
04:00 +19°C° 0 mm 1 mps 656 mmHg 82%
05:00 +19°C° 0 mm 1 mps 657 mmHg 83%
06:00 +19°C° 0 mm 1 mps 657 mmHg 84%
07:00 +19°C° 0 mm 1 mps 657 mmHg 78%
08:00 +20°C° 0 mm 1 mps 658 mmHg 73%
09:00 +21°C° 0 mm 1 mps 658 mmHg 67%
10:00 +22°C° 0 mm 1 mps 658 mmHg 64%
11:00 +23°C° 0 mm 2 mps 658 mmHg 62%
12:00 +24°C° 0 mm 3 mps 658 mmHg 59%
13:00 +24°C° 0 mm 3 mps 658 mmHg 60%
14:00 +24°C° 0 mm 3 mps 657 mmHg 60%
15:00 +24°C° 0 mm 3 mps 657 mmHg 61%
16:00 +24°C° 0 mm 3 mps 657 mmHg 66%
17:00 +22°C° 0 mm 3 mps 657 mmHg 70%
18:00 +21°C° 0 mm 2 mps 657 mmHg 74%
19:00 +21°C° 0 mm 2 mps 658 mmHg 74%
20:00 +21°C° 0 mm 2 mps 658 mmHg 73%
21:00 +20°C° 0 mm 2 mps 658 mmHg 73%
22:00 +21°C° 0 mm 1 mps 658 mmHg 73%
23:00 +21°C° 0 mm 1 mps 658 mmHg 72%

19 January, Tuesday

Time Temperature Precipitation Wind Pressure Humidity
00:00 +20°C° 0 mm 1 mps 658 mmHg 71%
01:00 +20°C° 0 mm 1 mps 657 mmHg 73%
02:00 +19°C° 0 mm 1 mps 657 mmHg 75%
03:00 +19°C° 0 mm 1 mps 657 mmHg 76%
04:00 +19°C° 0 mm 1 mps 657 mmHg 76%
05:00 +17°C° 0 mm 0 mps 657 mmHg 76%
06:00 +17°C° 0 mm 0 mps 657 mmHg 76%
07:00 +17°C° 0 mm 0 mps 658 mmHg 71%
08:00 +20°C° 0 mm 1 mps 658 mmHg 66%
09:00 +21°C° 0 mm 1 mps 659 mmHg 61%
10:00 +22°C° 0 mm 1 mps 658 mmHg 57%
11:00 +23°C° 0 mm 2 mps 658 mmHg 54%
12:00 +24°C° 0 mm 3 mps 658 mmHg 50%
13:00 +24°C° 0 mm 3 mps 658 mmHg 53%
14:00 +24°C° 0 mm 3 mps 657 mmHg 56%
15:00 +24°C° 0 mm 3 mps 657 mmHg 59%
16:00 +24°C° 0.1 mm 3 mps 657 mmHg 64%
17:00 +23°C° 0.1 mm 2 mps 657 mmHg 69%
18:00 +21°C° 0.1 mm 2 mps 657 mmHg 74%
19:00 +22°C° 0 mm 1 mps 657 mmHg 74%
20:00 +22°C° 0 mm 1 mps 658 mmHg 75%
21:00 +19°C° 0 mm 0 mps 658 mmHg 75%
22:00 +19°C° 0 mm 0 mps 658 mmHg 76%
23:00 +19°C° 0 mm 0 mps 658 mmHg 77%

20 January, Wednesday

Time Temperature Precipitation Wind Pressure Humidity
00:00 +19°C° 0 mm 0 mps 658 mmHg 78%
01:00 +18°C° 0 mm 0 mps 657 mmHg 79%
02:00 +18°C° 0 mm 0 mps 657 mmHg 81%
03:00 +18°C° 0 mm 0 mps 657 mmHg 83%
04:00 +17°C° 0 mm 0 mps 657 mmHg 83%
05:00 +17°C° 0 mm 0 mps 657 mmHg 84%
06:00 +17°C° 0 mm 0 mps 657 mmHg 84%
07:00 +19°C° 0 mm 1 mps 658 mmHg 80%
08:00 +20°C° 0 mm 1 mps 658 mmHg 77%
09:00 +21°C° 0 mm 1 mps 659 mmHg 73%
10:00 +22°C° 0 mm 1 mps 659 mmHg 68%
11:00 +21°C° 0 mm 2 mps 659 mmHg 64%
12:00 +22°C° 0 mm 3 mps 659 mmHg 60%
13:00 +22°C° 0 mm 3 mps 658 mmHg 62%
14:00 +22°C° 0 mm 3 mps 657 mmHg 64%
15:00 +22°C° 0 mm 3 mps 657 mmHg 66%
16:00 +23°C° 0 mm 2 mps 657 mmHg 68%
17:00 +23°C° 0 mm 2 mps 657 mmHg 71%
18:00 +21°C° 0 mm 2 mps 658 mmHg 73%
19:00 +22°C° 0 mm 1 mps 658 mmHg 75%
20:00 +22°C° 0 mm 1 mps 658 mmHg 76%
21:00 +21°C° 0 mm 1 mps 659 mmHg 78%
22:00 +21°C° 0 mm 1 mps 659 mmHg 80%
23:00 +21°C° 0 mm 1 mps 658 mmHg 82%

21 January, Thursday

Time Temperature Precipitation Wind Pressure Humidity
00:00 +20°C° 0 mm 1 mps 658 mmHg 83%
01:00 +20°C° 0 mm 1 mps 658 mmHg 85%
02:00 +18°C° 0 mm 0 mps 658 mmHg 87%
03:00 +17°C° 0 mm 0 mps 657 mmHg 89%
04:00 +17°C° 0 mm 0 mps 657 mmHg 89%
05:00 +17°C° 0 mm 0 mps 657 mmHg 89%
06:00 +17°C° 0 mm 0 mps 657 mmHg 89%
07:00 +17°C° 0 mm 0 mps 658 mmHg 85%
08:00 +20°C° 0 mm 1 mps 658 mmHg 81%
09:00 +20°C° 0 mm 1 mps 659 mmHg 77%
10:00 +21°C° 0 mm 1 mps 659 mmHg 75%
11:00 +21°C° 0 mm 2 mps 659 mmHg 73%
12:00 +21°C° 0 mm 2 mps 658 mmHg 71%
13:00 +21°C° 0 mm 2 mps 658 mmHg 69%
14:00 +23°C° 0 mm 2 mps 657 mmHg 68%
15:00 +23°C° 0 mm 2 mps 657 mmHg 67%
16:00 +23°C° 0 mm 2 mps 657 mmHg 66%
17:00 +23°C° 0 mm 2 mps 658 mmHg 65%
18:00 +23°C° 0 mm 2 mps 658 mmHg 65%
19:00 +22°C° 0 mm 1 mps 658 mmHg 66%
20:00 +22°C° 0 mm 1 mps 658 mmHg 68%
21:00 +21°C° 0 mm 1 mps 659 mmHg 70%
22:00 +21°C° 0 mm 1 mps 659 mmHg 68%
23:00 +21°C° 0 mm 1 mps 658 mmHg 67%
Show more